User: anonymous   Login
Location: Unspecified
(0.0000°N, 0.0000°E)
Time: 03:52:30
(UTC+00:00)
Language:

YAOGAN 12 - Orbit

View from above orbital plane
View from above orbital plane
View from above satellite
View from above satellite

Ground track
Ground track

The orbit data is extracted from the following two-line orbital elements,

1 37875U 11066B   18292.78426838  .00001027  00000-0  44387-4 0  9992
2 37875  97.4917   3.6961 0003728  75.1625  39.7130 15.24757210386611
Epoch (UTC): 19 October 2018 18:49:20
Eccentricity: 0.0003728
inclination: 97.4917°
perigee height: 489 km
apogee height: 494 km
right ascension of ascending node: 3.6961°
argument of perigee: 75.1625°
revolutions per day: 15.24757210
mean anomaly at epoch: 39.7130°
orbit number at epoch: 38661

The dashed part of the orbit path shows where the satellite is in the earth's shadow,  

DLR